Location: Bonn
(50.7330°N, 7.1000°E)
Time: 14:00:14
(UTC+01:00)

Cosmos 1933 Rocket - Visible Passes

Search period start: 17 January 2017 00:00
Search period end: 27 January 2017 00:00
Orbit: 608 x 629 km, 82.5° (Epoch: 17 January)

Date Brightness Start Highest point End Pass type
(mag) Time Alt. Az. Time Alt. Az. Time Alt. Az.
17 Jan 6.4 06:04:35 10° NNE 06:07:25 16° ENE 06:10:13 10° ESE visible
17 Jan 3.6 07:41:21 10° NNW 07:45:50 71° W 07:50:14 10° S visible
18 Jan 5.8 06:21:14 10° NNE 06:24:59 25° ENE 06:28:41 10° SE visible
19 Jan 4.9 06:38:11 10° N 06:42:26 41° ENE 06:46:39 10° SE visible
20 Jan 6.8 05:20:10 10° NE 05:21:01 10° ENE 05:21:53 10° ENE visible
20 Jan 3.9 06:55:20 10° N 06:59:48 70° ENE 07:04:14 10° SSE visible
21 Jan 6.4 05:35:48 10° NNE 05:38:41 17° ENE 05:41:34 10° ESE visible
21 Jan 3.5 07:12:37 10° NNW 07:17:04 69° W 07:21:29 10° S visible
22 Jan 5.7 05:52:28 10° N 05:56:15 26° ENE 06:00:00 10° SE visible
22 Jan 4.1 07:30:05 10° NNW 07:34:15 39° W 07:38:22 10° SSW visible
22 Jan 6.2 20:05:49 10° SSW 20:05:57 11° SSW 20:05:57 11° SSW visible
23 Jan 4.8 06:09:26 10° N 06:13:42 42° ENE 06:17:56 10° SE visible
23 Jan 5.5 18:46:42 10° SE 18:47:29 13° SE 18:47:29 13° SE visible
23 Jan 5.7 20:23:17 10° SSW 20:24:44 20° SW 20:24:44 20° SW visible
24 Jan 6.7 04:51:10 10° NE 04:52:19 11° ENE 04:53:26 10° ENE visible
24 Jan 3.8 06:26:35 10° N 06:31:04 73° E 06:35:29 10° SSE visible
24 Jan 4.3 19:03:05 10° SSE 19:06:22 33° ESE 19:06:22 33° ESE visible
24 Jan 5.7 20:41:08 10° SW 20:43:37 24° WSW 20:43:37 24° WSW visible
25 Jan 6.3 05:07:00 10° NNE 05:09:58 17° ENE 05:12:55 10° ESE visible
25 Jan 3.5 06:43:53 10° NNW 06:48:19 66° W 06:52:42 10° S visible
25 Jan 3.5 19:19:54 10° S 19:24:17 60° E 19:25:17 47° NE visible
25 Jan 6.1 20:59:26 10° WSW 21:02:33 19° WNW 21:02:33 19° WNW visible
26 Jan 5.6 05:23:42 10° N 05:27:31 27° ENE 05:31:17 10° SE visible
26 Jan 4.1 07:01:22 10° NNW 07:05:30 38° W 07:09:34 10° SSW visible
26 Jan 5.3 18:02:10 10° ESE 18:04:20 13° E 18:06:29 10° NE visible
26 Jan 3.6 19:37:04 10° SSW 19:41:31 79° W 19:44:15 24° N visible
26 Jan 6.7 21:18:34 10° W 21:20:13 12° WNW 21:21:31 11° NW visible
